Time,TemperatureF,DewpointF,PressureIn,WindDirection,WindDirectionDegrees,WindSpeedMPH,WindSpeedGustMPH,Humidity,HourlyPrecipIn,Conditions,Clouds,dailyrainin,SoftwareType,DateUTC
2013-01-17 13:10:00,36.0,29.8,30.10,SW,230,0.0,1.0,78,0.00,,,0.00,Wunderground v.1.13,2013-01-17 18:10:00,
2013-01-17 13:16:00,36.0,29.5,30.11,SW,230,0.0,1.0,77,0.00,,,0.00,Wunderground v.1.13,2013-01-17 18:16:00,
2013-01-17 13:22:00,36.1,29.6,30.11,SW,231,0.0,3.0,77,0.00,,,0.00,Wunderground v.1.13,2013-01-17 18:22:00,
2013-01-17 13:27:00,36.0,29.5,30.11,SW,224,1.0,3.0,77,0.00,,,0.00,Wunderground v.1.13,2013-01-17 18:27:00,
2013-01-17 13:33:00,35.9,29.1,30.10,SW,223,2.0,2.0,76,0.00,,,0.00,Wunderground v.1.13,2013-01-17 18:33:00,
2013-01-17 13:39:00,35.9,29.4,30.09,SW,223,1.0,3.0,77,0.00,,,0.00,Wunderground v.1.13,2013-01-17 18:39:00,
2013-01-17 13:45:00,36.0,29.2,30.09,SW,223,1.0,1.0,76,0.00,,,0.00,Wunderground v.1.13,2013-01-17 18:45:00,
2013-01-17 13:51:00,36.0,29.2,30.09,SW,223,0.0,2.0,76,0.00,,,0.00,Wunderground v.1.13,2013-01-17 18:51:00,
2013-01-17 13:57:00,36.1,29.3,30.09,SW,223,0.0,1.0,76,0.00,,,0.00,Wunderground v.1.13,2013-01-17 18:57:00,
2013-01-17 14:02:00,36.1,28.9,30.08,SW,223,0.0,1.0,75,0.00,,,0.00,Wunderground v.1.13,2013-01-17 19:02:00,
2013-01-17 14:08:00,36.1,28.9,30.07,SW,223,0.0,0.0,75,0.00,,,0.00,Wunderground v.1.13,2013-01-17 19:08:00,
2013-01-17 14:14:00,36.1,28.9,30.07,SW,223,0.0,1.0,75,0.00,,,0.00,Wunderground v.1.13,2013-01-17 19:14:00,
2013-01-17 14:20:00,36.1,29.3,30.08,SW,223,0.0,0.0,76,0.00,,,0.00,Wunderground v.1.13,2013-01-17 19:20:00,
2013-01-17 14:26:00,36.1,29.3,30.07,SW,223,0.0,0.0,76,0.00,,,0.00,Wunderground v.1.13,2013-01-17 19:26:00,
2013-01-17 14:31:00,36.1,28.9,30.07,SW,223,0.0,2.0,75,0.00,,,0.00,Wunderground v.1.13,2013-01-17 19:31:00,
2013-01-17 14:36:00,36.1,28.9,30.07,SW,223,0.0,0.0,75,0.00,,,0.00,Wunderground v.1.13,2013-01-17 19:36:00,
2013-01-17 14:42:00,36.0,28.8,30.08,SW,223,0.0,0.0,75,0.00,,,0.00,Wunderground v.1.13,2013-01-17 19:42:00,
2013-01-17 14:48:00,36.0,28.8,30.08,SW,223,0.0,1.0,75,0.00,,,0.00,Wunderground v.1.13,2013-01-17 19:48:00,
2013-01-17 14:53:00,35.9,28.7,30.09,SW,223,0.0,0.0,75,0.00,,,0.00,Wunderground v.1.13,2013-01-17 19:53:00,
2013-01-17 14:59:00,35.8,28.6,30.09,SW,223,0.0,1.0,75,0.00,,,0.00,Wunderground v.1.13,2013-01-17 19:59:00,
2013-01-17 15:04:00,35.7,28.6,30.09,SW,223,0.0,0.0,75,0.00,,,0.00,Wunderground v.1.13,2013-01-17 20:04:00,
2013-01-17 15:09:00,35.7,28.9,30.09,SW,223,0.0,2.0,76,0.00,,,0.00,Wunderground v.1.13,2013-01-17 20:09:00,
2013-01-17 15:15:00,35.6,28.8,30.09,SW,223,0.0,2.0,76,0.00,,,0.00,Wunderground v.1.13,2013-01-17 20:15:00,
2013-01-17 15:21:00,35.6,29.1,30.10,SW,223,0.0,2.0,77,0.00,,,0.00,Wunderground v.1.13,2013-01-17 20:21:00,
2013-01-17 15:26:00,35.5,29.3,30.10,SW,223,0.0,2.0,78,0.00,,,0.00,Wunderground v.1.13,2013-01-17 20:26:00,
2013-01-17 15:32:00,35.5,29.3,30.11,SW,224,0.0,2.0,78,0.00,,,0.00,Wunderground v.1.13,2013-01-17 20:32:00,
2013-01-17 15:37:00,35.4,29.2,30.10,SW,224,0.0,2.0,78,0.00,,,0.00,Wunderground v.1.13,2013-01-17 20:37:00,
2013-01-17 15:43:00,35.3,29.1,30.09,SW,224,0.0,2.0,78,0.00,,,0.00,Wunderground v.1.13,2013-01-17 20:43:00,
2013-01-17 15:48:00,35.1,29.2,30.09,SW,224,0.0,2.0,79,0.00,,,0.00,Wunderground v.1.13,2013-01-17 20:48:00,
2013-01-17 15:54:00,35.1,29.2,30.09,SW,224,0.0,2.0,79,0.00,,,0.00,Wunderground v.1.13,2013-01-17 20:54:00,
2013-01-17 16:00:00,35.0,29.5,30.10,SW,224,0.0,2.0,80,0.00,,,0.00,Wunderground v.1.13,2013-01-17 21:00:00,
2013-01-17 16:05:00,35.0,29.5,30.10,SW,224,0.0,0.0,80,0.00,,,0.00,Wunderground v.1.13,2013-01-17 21:05:00,
2013-01-17 16:11:00,35.0,29.5,30.09,SW,224,0.0,0.0,80,0.00,,,0.00,Wunderground v.1.13,2013-01-17 21:11:00,
2013-01-17 16:17:00,35.0,29.5,30.09,SW,224,0.0,0.0,80,0.00,,,0.00,Wunderground v.1.13,2013-01-17 21:17:00,
2013-01-17 16:23:00,35.0,29.5,30.11,SW,224,0.0,0.0,80,0.00,,,0.00,Wunderground v.1.13,2013-01-17 21:23:00,
2013-01-17 16:28:00,34.9,29.4,30.10,SW,224,0.0,0.0,80,0.00,,,0.00,Wunderground v.1.13,2013-01-17 21:28:00,
2013-01-17 16:33:00,34.9,29.4,30.10,SW,224,0.0,0.0,80,0.00,,,0.00,Wunderground v.1.13,2013-01-17 21:33:00,
2013-01-17 16:39:00,34.8,29.3,30.11,SW,224,0.0,1.0,80,0.00,,,0.00,Wunderground v.1.13,2013-01-17 21:39:00,
2013-01-17 16:45:00,34.7,29.5,30.11,SW,224,0.0,0.0,81,0.00,,,0.00,Wunderground v.1.13,2013-01-17 21:45:00,
2013-01-17 16:51:00,34.6,29.4,30.10,SW,224,0.0,0.0,81,0.00,,,0.00,Wunderground v.1.13,2013-01-17 21:51:00,
2013-01-17 16:57:00,34.6,29.4,30.10,SW,224,0.0,0.0,81,0.00,,,0.00,Wunderground v.1.13,2013-01-17 21:57:00,
2013-01-17 17:03:00,34.5,29.3,30.11,SW,224,0.0,0.0,81,0.00,,,0.00,Wunderground v.1.13,2013-01-17 22:03:00,
2013-01-17 17:08:00,34.4,29.2,30.11,SW,224,0.0,0.0,81,0.00,,,0.00,Wunderground v.1.13,2013-01-17 22:08:00,
2013-01-17 17:14:00,34.3,29.1,30.12,SW,224,0.0,0.0,81,0.00,,,0.00,Wunderground v.1.13,2013-01-17 22:14:00,
2013-01-17 17:20:00,34.2,29.3,30.12,SW,224,0.0,0.0,82,0.00,,,0.00,Wunderground v.1.13,2013-01-17 22:20:00,
2013-01-17 17:26:00,34.1,29.2,30.12,SW,224,0.0,0.0,82,0.00,,,0.00,Wunderground v.1.13,2013-01-17 22:26:00,
2013-01-17 17:31:00,34.0,29.4,30.12,SW,224,0.0,0.0,83,0.00,,,0.00,Wunderground v.1.13,2013-01-17 22:31:00,
2013-01-17 17:37:00,33.9,29.3,30.12,SW,224,0.0,0.0,83,0.00,,,0.00,Wunderground v.1.13,2013-01-17 22:37:00,
2013-01-17 17:43:00,33.8,29.2,30.12,SW,224,0.0,0.0,83,0.00,,,0.00,Wunderground v.1.13,2013-01-17 22:43:00,
2013-01-17 17:49:00,33.7,29.1,30.13,SW,224,0.0,0.0,83,0.00,,,0.00,Wunderground v.1.13,2013-01-17 22:49:00,
2013-01-17 17:55:00,33.6,29.0,30.13,SW,224,0.0,0.0,83,0.00,,,0.00,Wunderground v.1.13,2013-01-17 22:55:00,
2013-01-17 18:00:00,33.5,29.2,30.13,SW,224,0.0,0.0,84,0.00,,,0.00,Wunderground v.1.13,2013-01-17 23:00:00,
2013-01-17 18:05:00,33.4,29.1,30.13,SW,224,0.0,0.0,84,0.00,,,0.00,Wunderground v.1.13,2013-01-17 23:05:00,
2013-01-17 18:11:00,33.3,29.0,30.13,SW,224,0.0,0.0,84,0.00,,,0.00,Wunderground v.1.13,2013-01-17 23:11:00,
2013-01-17 18:17:00,33.2,28.9,30.13,SW,224,0.0,0.0,84,0.00,,,0.00,Wunderground v.1.13,2013-01-17 23:17:00,
2013-01-17 18:22:00,33.2,28.9,30.12,SW,224,0.0,0.0,84,0.00,,,0.00,Wunderground v.1.13,2013-01-17 23:22:00,
2013-01-17 18:28:00,33.1,29.1,30.12,SW,224,0.0,0.0,85,0.00,,,0.00,Wunderground v.1.13,2013-01-17 23:28:00,
2013-01-17 18:34:00,33.0,29.3,30.12,SW,224,0.0,0.0,86,0.00,,,0.00,Wunderground v.1.13,2013-01-17 23:34:00,
2013-01-17 18:40:00,32.9,29.2,30.13,SW,224,0.0,0.0,86,0.00,,,0.00,Wunderground v.1.13,2013-01-17 23:40:00,
2013-01-17 18:46:00,32.8,29.1,30.13,SW,224,0.0,0.0,86,0.00,,,0.00,Wunderground v.1.13,2013-01-17 23:46:00,
2013-01-17 18:51:00,32.7,29.0,30.11,SW,224,0.0,0.0,86,0.00,,,0.00,Wunderground v.1.13,2013-01-17 23:51:00,
2013-01-17 18:56:00,32.6,29.2,30.12,SW,224,0.0,0.0,87,0.00,,,0.00,Wunderground v.1.13,2013-01-17 23:56:00,
2013-01-17 19:02:00,32.5,29.1,30.12,SW,224,0.0,0.0,87,0.00,,,0.00,Wunderground v.1.13,2013-01-18 00:02:00,
2013-01-17 19:08:00,32.4,29.0,30.12,SW,224,0.0,0.0,87,0.00,,,0.00,Wunderground v.1.13,2013-01-18 00:08:00,
2013-01-17 19:14:00,32.3,28.9,30.11,SW,224,0.0,0.0,87,0.00,,,0.00,Wunderground v.1.13,2013-01-18 00:14:00,
2013-01-17 19:19:00,32.3,28.9,30.12,SW,224,0.0,0.0,87,0.00,,,0.00,Wunderground v.1.13,2013-01-18 00:19:00,
2013-01-17 19:25:00,32.2,29.0,30.13,SW,224,0.0,0.0,88,0.00,,,0.00,Wunderground v.1.13,2013-01-18 00:25:00,
2013-01-17 19:31:00,32.1,28.9,30.13,SW,224,0.0,0.0,88,0.00,,,0.00,Wunderground v.1.13,2013-01-18 00:31:00,
2013-01-17 19:37:00,32.1,28.9,30.13,SW,224,0.0,0.0,88,0.00,,,0.00,Wunderground v.1.13,2013-01-18 00:37:00,
2013-01-17 19:43:00,32.0,28.8,30.14,SW,224,0.0,0.0,88,0.00,,,0.00,Wunderground v.1.13,2013-01-18 00:43:00,
2013-01-17 19:49:00,32.0,29.1,30.14,SW,224,0.0,0.0,89,0.00,,,0.00,Wunderground v.1.13,2013-01-18 00:49:00,
2013-01-17 19:55:00,31.9,29.0,30.13,SW,224,0.0,0.0,89,0.00,,,0.00,Wunderground v.1.13,2013-01-18 00:55:00,
2013-01-17 20:01:00,31.9,29.0,30.13,SW,224,0.0,0.0,89,0.00,,,0.00,Wunderground v.1.13,2013-01-18 01:01:00,
2013-01-17 20:07:00,31.9,29.0,30.13,SW,224,0.0,0.0,89,0.00,,,0.00,Wunderground v.1.13,2013-01-18 01:07:00,
2013-01-17 20:12:00,31.8,28.9,30.14,SW,224,0.0,0.0,89,0.00,,,0.00,Wunderground v.1.13,2013-01-18 01:12:00,
2013-01-17 20:18:00,31.8,28.9,30.14,SW,224,0.0,0.0,89,0.00,,,0.00,Wunderground v.1.13,2013-01-18 01:18:00,
2013-01-17 20:24:00,31.8,28.9,30.14,SW,224,0.0,2.0,89,0.00,,,0.00,Wunderground v.1.13,2013-01-18 01:24:00,
2013-01-17 20:29:00,31.8,28.9,30.14,SW,224,0.0,2.0,89,0.00,,,0.00,Wunderground v.1.13,2013-01-18 01:29:00,
2013-01-17 20:35:00,31.9,29.0,30.13,SW,224,0.0,0.0,89,0.00,,,0.00,Wunderground v.1.13,2013-01-18 01:35:00,
2013-01-17 20:40:00,31.9,29.0,30.12,SW,224,0.0,0.0,89,0.00,,,0.00,Wunderground v.1.13,2013-01-18 01:40:00,
2013-01-17 20:45:00,31.9,29.0,30.13,SW,224,0.0,0.0,89,0.00,,,0.00,Wunderground v.1.13,2013-01-18 01:45:00,
2013-01-17 20:51:00,32.0,29.1,30.12,SW,224,0.0,0.0,89,0.00,,,0.00,Wunderground v.1.13,2013-01-18 01:51:00,
2013-01-17 20:57:00,32.0,28.8,30.13,SW,224,0.0,0.0,88,0.00,,,0.00,Wunderground v.1.13,2013-01-18 01:57:00,
2013-01-17 21:03:00,32.0,28.8,30.14,SW,224,0.0,3.0,88,0.00,,,0.00,Wunderground v.1.13,2013-01-18 02:03:00,
2013-01-17 21:08:00,32.1,28.9,30.14,SW,224,0.0,0.0,88,0.00,,,0.00,Wunderground v.1.13,2013-01-18 02:08:00,
2013-01-17 21:13:00,32.1,28.9,30.13,SW,224,0.0,3.0,88,0.00,,,0.00,Wunderground v.1.13,2013-01-18 02:13:00,
2013-01-17 21:19:00,32.1,28.7,30.15,SW,224,0.0,0.0,87,0.00,,,0.00,Wunderground v.1.13,2013-01-18 02:19:00,
2013-01-17 21:25:00,32.1,28.7,30.14,SW,224,0.0,0.0,87,0.00,,,0.00,Wunderground v.1.13,2013-01-18 02:25:00,
2013-01-17 21:30:00,32.1,28.7,30.14,SW,225,1.0,1.0,87,0.00,,,0.00,Wunderground v.1.13,2013-01-18 02:30:00,
2013-01-17 21:36:00,32.1,28.7,30.14,SW,225,1.0,1.0,87,0.00,,,0.00,Wunderground v.1.13,2013-01-18 02:36:00,
2013-01-17 21:42:00,32.1,28.4,30.14,SW,225,0.0,3.0,86,0.00,,,0.00,Wunderground v.1.13,2013-01-18 02:42:00,
2013-01-17 21:48:00,32.1,28.4,30.14,SW,225,1.0,1.0,86,0.00,,,0.00,Wunderground v.1.13,2013-01-18 02:48:00,
2013-01-17 21:54:00,32.1,28.4,30.13,SW,225,0.0,1.0,86,0.00,,,0.00,Wunderground v.1.13,2013-01-18 02:54:00,
2013-01-17 21:59:00,32.1,28.4,30.13,SW,225,0.0,0.0,86,0.00,,,0.00,Wunderground v.1.13,2013-01-18 02:59:00,
2013-01-17 22:05:00,32.1,28.4,30.13,SW,225,0.0,0.0,86,0.00,,,0.00,Wunderground v.1.13,2013-01-18 03:05:00,
2013-01-17 22:11:00,32.0,28.3,30.12,SW,225,0.0,2.0,86,0.00,,,0.00,Wunderground v.1.13,2013-01-18 03:11:00,
2013-01-17 22:17:00,32.0,28.3,30.12,SW,225,0.0,0.0,86,0.00,,,0.00,Wunderground v.1.13,2013-01-18 03:17:00,
2013-01-17 22:23:00,32.0,28.3,30.12,SW,225,0.0,0.0,86,0.00,,,0.00,Wunderground v.1.13,2013-01-18 03:23:00,
2013-01-17 22:29:00,31.9,28.2,30.12,SW,225,0.0,0.0,86,0.00,,,0.00,Wunderground v.1.13,2013-01-18 03:29:00,
2013-01-17 22:35:00,31.9,28.2,30.12,SW,225,0.0,2.0,86,0.00,,,0.00,Wunderground v.1.13,2013-01-18 03:35:00,
2013-01-17 22:41:00,31.9,28.2,30.11,SW,225,0.0,2.0,86,0.00,,,0.00,Wunderground v.1.13,2013-01-18 03:41:00,
2013-01-17 22:46:00,31.9,28.2,30.12,SW,225,0.0,0.0,86,0.00,,,0.00,Wunderground v.1.13,2013-01-18 03:46:00,
2013-01-17 22:52:00,31.8,28.1,30.11,SW,225,0.0,2.0,86,0.00,,,0.00,Wunderground v.1.13,2013-01-18 03:52:00,
2013-01-17 22:58:00,31.7,28.0,30.11,SW,225,1.0,1.0,86,0.00,,,0.00,Wunderground v.1.13,2013-01-18 03:58:00,
2013-01-17 23:03:00,31.7,28.0,30.11,SW,225,0.0,1.0,86,0.00,,,0.00,Wunderground v.1.13,2013-01-18 04:03:00,
2013-01-17 23:09:00,31.7,28.3,30.11,SW,225,0.0,3.0,87,0.00,,,0.00,Wunderground v.1.13,2013-01-18 04:09:00,
2013-01-17 23:14:00,31.7,28.3,30.11,SW,227,1.0,3.0,87,0.00,,,0.00,Wunderground v.1.13,2013-01-18 04:14:00,
2013-01-17 23:20:00,31.7,28.3,30.11,SW,228,1.0,4.0,87,0.00,,,0.00,Wunderground v.1.13,2013-01-18 04:20:00,
2013-01-17 23:26:00,31.7,28.3,30.12,WSW,238,2.0,3.0,87,0.00,,,0.00,Wunderground v.1.13,2013-01-18 04:26:00,
2013-01-17 23:32:00,31.8,28.4,30.12,WSW,239,1.0,3.0,87,0.00,,,0.00,Wunderground v.1.13,2013-01-18 04:32:00,
2013-01-17 23:38:00,31.8,28.4,30.13,WSW,238,1.0,4.0,87,0.00,,,0.00,Wunderground v.1.13,2013-01-18 04:38:00,
2013-01-17 23:44:00,31.9,28.5,30.12,WSW,256,1.0,14.0,87,0.00,,,0.00,Wunderground v.1.13,2013-01-18 04:44:00,
2013-01-17 23:50:00,32.0,28.6,30.12,WSW,250,2.0,3.0,87,0.00,,,0.00,Wunderground v.1.13,2013-01-18 04:50:00,
2013-01-17 23:56:00,32.0,28.6,30.12,WSW,249,1.0,3.0,87,0.00,,,0.00,Wunderground v.1.13,2013-01-18 04:56:00,